When you browse on this site, cookies collect data to enhance your experience and personalize the content and advertising you see.
Visit our Privacy Policy to learn more. By continuing to use the site, you agree to this use of cookies and data.
  • En España
  • Lista de países
  • Para 7 días
  • Temperatura del agua
  • Mapa Satelital
  • El tiempo en el mapa
  • Informadores
  • user-avatar
    Iniciar sesión

    Tiempo cada hora San Miguel de Tucumán

    Hoy, 16 Diciembre, Domingo

    Tiempo Temperatura Precipitaciones Viento Presión Humedad
    00:00 +23°C° 0 mm 1 mps 719 mmHg 87%
    01:00 +23°C° 0 mm 1 mps 719 mmHg 87%
    02:00 +23°C° 0 mm 1 mps 719 mmHg 88%
    03:00 +23°C° 0 mm 1 mps 719 mmHg 88%
    04:00 +22°C° 0 mm 1 mps 719 mmHg 88%
    05:00 +22°C° 0 mm 1 mps 719 mmHg 88%
    06:00 +24°C° 0 mm 1 mps 719 mmHg 82%
    07:00 +26°C° 0 mm 1 mps 719 mmHg 76%
    08:00 +27°C° 0 mm 2 mps 720 mmHg 70%
    09:00 +29°C° 0 mm 2 mps 719 mmHg 66%
    10:00 +31°C° 0 mm 2 mps 719 mmHg 61%
    11:00 +34°C° 0 mm 2 mps 719 mmHg 56%
    12:00 +35°C° 0 mm 2 mps 718 mmHg 54%
    13:00 +36°C° 0 mm 3 mps 718 mmHg 51%
    14:00 +36°C° 0 mm 3 mps 717 mmHg 49%
    15:00 +36°C° 0 mm 3 mps 717 mmHg 52%
    16:00 +35°C° 0 mm 3 mps 716 mmHg 55%
    17:00 +35°C° 0 mm 3 mps 715 mmHg 58%
    18:00 +32°C° 0.1 mm 2 mps 716 mmHg 64%
    19:00 +31°C° 0.1 mm 2 mps 716 mmHg 70%
    20:00 +29°C° 0.1 mm 1 mps 716 mmHg 76%
    21:00 +29°C° 0.1 mm 1 mps 716 mmHg 76%
    22:00 +28°C° 0.1 mm 1 mps 717 mmHg 77%
    23:00 +28°C° 0.1 mm 1 mps 717 mmHg 77%

    Mañana, 17 Diciembre, Lunes

    Tiempo Temperatura Precipitaciones Viento Presión Humedad
    00:00 +28°C° 0.3 mm 1 mps 717 mmHg 77%
    01:00 +27°C° 0.3 mm 1 mps 716 mmHg 77%
    02:00 +27°C° 0.3 mm 1 mps 716 mmHg 76%
    03:00 +27°C° 0.1 mm 1 mps 716 mmHg 75%
    04:00 +27°C° 0.1 mm 1 mps 715 mmHg 74%
    05:00 +27°C° 0.1 mm 1 mps 715 mmHg 72%
    06:00 +28°C° 0 mm 1 mps 716 mmHg 69%
    07:00 +29°C° 0 mm 1 mps 716 mmHg 66%
    08:00 +30°C° 0 mm 1 mps 717 mmHg 62%
    09:00 +32°C° 0 mm 1 mps 717 mmHg 57%
    10:00 +34°C° 0 mm 1 mps 717 mmHg 52%
    11:00 +35°C° 0 mm 1 mps 717 mmHg 47%
    12:00 +36°C° 0 mm 1 mps 717 mmHg 45%
    13:00 +36°C° 0 mm 1 mps 717 mmHg 43%
    14:00 +37°C° 0 mm 1 mps 716 mmHg 41%
    15:00 +36°C° 0.2 mm 1 mps 716 mmHg 45%
    16:00 +35°C° 0.2 mm 1 mps 716 mmHg 49%
    17:00 +34°C° 0.2 mm 1 mps 715 mmHg 52%
    18:00 +32°C° 0.6 mm 2 mps 715 mmHg 58%
    19:00 +31°C° 0.6 mm 2 mps 715 mmHg 63%
    20:00 +29°C° 0.6 mm 2 mps 716 mmHg 68%
    21:00 +28°C° 0.7 mm 2 mps 716 mmHg 69%
    22:00 +28°C° 0.7 mm 2 mps 717 mmHg 71%
    23:00 +27°C° 0.7 mm 2 mps 717 mmHg 73%

    Pasado mañana, 18 Diciembre, Martes

    Tiempo Temperatura Precipitaciones Viento Presión Humedad
    00:00 +27°C° 0.8 mm 3 mps 717 mmHg 74%
    01:00 +26°C° 0.8 mm 3 mps 717 mmHg 76%
    02:00 +25°C° 0.8 mm 4 mps 717 mmHg 78%
    03:00 +25°C° 1.4 mm 3 mps 718 mmHg 83%
    04:00 +25°C° 1.4 mm 3 mps 718 mmHg 88%
    05:00 +25°C° 1.4 mm 2 mps 719 mmHg 92%
    06:00 +25°C° 1.6 mm 2 mps 719 mmHg 90%
    07:00 +26°C° 1.6 mm 2 mps 720 mmHg 88%
    08:00 +27°C° 1.6 mm 2 mps 721 mmHg 85%
    09:00 +27°C° 1.9 mm 3 mps 721 mmHg 85%
    10:00 +27°C° 1.9 mm 3 mps 721 mmHg 85%
    11:00 +27°C° 1.9 mm 3 mps 721 mmHg 84%
    12:00 +26°C° 1.7 mm 3 mps 721 mmHg 86%
    13:00 +26°C° 1.7 mm 3 mps 720 mmHg 88%
    14:00 +26°C° 1.7 mm 3 mps 720 mmHg 89%
    15:00 +26°C° 0.9 mm 3 mps 720 mmHg 89%
    16:00 +26°C° 0.9 mm 3 mps 719 mmHg 89%
    17:00 +26°C° 0.9 mm 2 mps 719 mmHg 88%
    18:00 +25°C° 0.6 mm 2 mps 720 mmHg 90%
    19:00 +25°C° 0.6 mm 2 mps 720 mmHg 92%
    20:00 +24°C° 0.6 mm 1 mps 721 mmHg 94%
    21:00 +24°C° 0.3 mm 1 mps 721 mmHg 93%
    22:00 +24°C° 0.3 mm 1 mps 721 mmHg 92%
    23:00 +24°C° 0.3 mm 1 mps 721 mmHg 91%

    19 Diciembre, Miércoles

    Tiempo Temperatura Precipitaciones Viento Presión Humedad
    00:00 +22°C° 0.1 mm 0 mps 721 mmHg 92%
    01:00 +22°C° 0.1 mm 0 mps 720 mmHg 92%
    02:00 +21°C° 0.1 mm 0 mps 719 mmHg 93%
    03:00 +21°C° 0.1 mm 0 mps 719 mmHg 93%
    04:00 +21°C° 0.1 mm 0 mps 719 mmHg 93%
    05:00 +23°C° 0.1 mm 1 mps 718 mmHg 93%
    06:00 +24°C° 0.4 mm 1 mps 719 mmHg 91%
    07:00 +24°C° 0.4 mm 1 mps 719 mmHg 89%
    08:00 +25°C° 0.4 mm 2 mps 719 mmHg 87%
    09:00 +26°C° 0.3 mm 2 mps 718 mmHg 83%
    10:00 +27°C° 0.3 mm 2 mps 718 mmHg 79%
    11:00 +28°C° 0.3 mm 3 mps 718 mmHg 75%
    12:00 +29°C° 0.1 mm 3 mps 717 mmHg 71%
    13:00 +30°C° 0.1 mm 3 mps 716 mmHg 68%
    14:00 +31°C° 0.1 mm 3 mps 715 mmHg 64%
    15:00 +30°C° 0.2 mm 3 mps 714 mmHg 66%
    16:00 +30°C° 0.2 mm 3 mps 714 mmHg 69%
    17:00 +30°C° 0.2 mm 3 mps 713 mmHg 71%
    18:00 +28°C° 0.2 mm 3 mps 714 mmHg 76%
    19:00 +27°C° 0.2 mm 2 mps 714 mmHg 82%
    20:00 +26°C° 0.2 mm 2 mps 715 mmHg 87%
    21:00 +25°C° 0 mm 1 mps 715 mmHg 87%
    22:00 +25°C° 0 mm 1 mps 715 mmHg 87%
    23:00 +25°C° 0 mm 1 mps 715 mmHg 87%

    20 Diciembre, Jueves

    Tiempo Temperatura Precipitaciones Viento Presión Humedad
    00:00 +24°C° 0 mm 1 mps 715 mmHg 85%
    01:00 +24°C° 0 mm 1 mps 714 mmHg 83%
    02:00 +24°C° 0 mm 1 mps 714 mmHg 81%
    03:00 +24°C° 0.2 mm 1 mps 714 mmHg 79%
    04:00 +24°C° 0.2 mm 1 mps 714 mmHg 77%
    05:00 +23°C° 0.2 mm 1 mps 715 mmHg 75%
    06:00 +25°C° 0.7 mm 1 mps 716 mmHg 74%
    07:00 +27°C° 0.7 mm 1 mps 716 mmHg 72%
    08:00 +28°C° 0.7 mm 1 mps 717 mmHg 71%
    09:00 +29°C° 0.3 mm 2 mps 717 mmHg 65%
    10:00 +31°C° 0.3 mm 3 mps 718 mmHg 59%
    11:00 +33°C° 0.3 mm 4 mps 718 mmHg 54%
    12:00 +34°C° 0.2 mm 4 mps 717 mmHg 51%
    13:00 +34°C° 0.2 mm 4 mps 717 mmHg 49%
    14:00 +35°C° 0.2 mm 4 mps 717 mmHg 47%
    15:00 +34°C° 0.7 mm 3 mps 716 mmHg 49%
    16:00 +34°C° 0.7 mm 3 mps 716 mmHg 51%
    17:00 +33°C° 0.7 mm 3 mps 716 mmHg 54%
    18:00 +30°C° 0.7 mm 2 mps 716 mmHg 61%
    19:00 +28°C° 0.7 mm 1 mps 717 mmHg 69%
    20:00 +26°C° 0.7 mm 1 mps 717 mmHg 77%
    21:00 +26°C° 0.3 mm 1 mps 717 mmHg 76%
    22:00 +26°C° 0.3 mm 1 mps 718 mmHg 76%
    23:00 +25°C° 0.3 mm 2 mps 718 mmHg 75%

    21 Diciembre, Viernes

    Tiempo Temperatura Precipitaciones Viento Presión Humedad
    00:00 +25°C° 0.2 mm 2 mps 718 mmHg 75%
    01:00 +24°C° 0.2 mm 1 mps 718 mmHg 75%
    02:00 +24°C° 0.2 mm 1 mps 717 mmHg 75%
    03:00 +24°C° 0 mm 1 mps 717 mmHg 75%
    04:00 +23°C° 0 mm 1 mps 717 mmHg 75%
    05:00 +23°C° 0 mm 1 mps 717 mmHg 76%
    06:00 +24°C° 0 mm 1 mps 718 mmHg 73%
    07:00 +26°C° 0 mm 1 mps 718 mmHg 71%
    08:00 +27°C° 0 mm 1 mps 719 mmHg 68%
    09:00 +29°C° 0.1 mm 2 mps 718 mmHg 64%
    10:00 +30°C° 0.1 mm 2 mps 718 mmHg 61%
    11:00 +32°C° 0.1 mm 2 mps 718 mmHg 57%
    12:00 +32°C° 0.4 mm 2 mps 717 mmHg 54%
    13:00 +34°C° 0.4 mm 2 mps 717 mmHg 52%
    14:00 +34°C° 0.4 mm 2 mps 716 mmHg 49%
    15:00 +34°C° 0.5 mm 2 mps 716 mmHg 50%
    16:00 +34°C° 0.5 mm 2 mps 715 mmHg 50%
    17:00 +32°C° 0.5 mm 2 mps 715 mmHg 51%
    18:00 +30°C° 0.2 mm 2 mps 716 mmHg 57%
    19:00 +28°C° 0.2 mm 1 mps 716 mmHg 62%
    20:00 +27°C° 0.2 mm 1 mps 717 mmHg 68%
    21:00 +26°C° 0 mm 1 mps 717 mmHg 69%
    22:00 +26°C° 0 mm 1 mps 718 mmHg 69%
    23:00 +25°C° 0 mm 1 mps 718 mmHg 70%
    Mostrar más